User: anonymous   Login
Location: Muenchen
(48.1800°N, 11.5800°E)
Time: 18:05:47
(UTC+01:00)
Language:

Sich 1 Rocket - Orbit

View from above orbital plane
View from above orbital plane
View from above satellite
View from above satellite

Ground track
Ground track

The orbit data is extracted from the following two-line orbital elements,

1 23659U 95046C   16042.09802948  .00000177  00000-0  21060-4 0  9990
2 23659  82.5284  42.0190 0026871  46.0922 356.5125 14.78153516101852
Epoch (UTC): 11 February 2016 02:21:09
Eccentricity: 0.0026871
inclination: 82.5284°
perigee height: 616 km
apogee height: 654 km
right ascension of ascending node: 42.0190°
argument of perigee: 46.0922°
revolutions per day: 14.78153516
mean anomaly at epoch: 356.5125°
orbit number at epoch: 10185

The dashed part of the orbit path shows where the satellite is in the earth's shadow,  

DLR